Find Starlink 4714

NORAD ID: 53704 Int'l Des: 2022-107 Owner: SPXS Country: US Constellation: starlink operational
LEOCIRCULAR

リアルタイム位置

3D地球を読み込み中...

Starlink 4714について

説明を読み込み中...

次回通過

Passes for default location (London). Set your location on the main map for personalized predictions.

高度履歴

Loading altitude history...

軌道要素

1 53704U 22107E 26126.34127546 .00000096 00000-0 24127-4 0 9995
2 53704 53.2193 345.5691 0001532 84.1610 275.9557 15.08844157203398
Epoch: May 6, 2026 • Age: 9 hours

現在のステータス

高度 547.9 km
速度 7.59 km/s
衛星直下点 -25.63°S, 64.09°E
打ち上げ日 Sep 5, 2022
運用期間 3.6 years
タイプ internet

技術仕様

分類 Payload
質量 305.00 kg
乾燥質量 290.00 kg
総質量 305.00 kg
長さ 0.20 m
直径 2.80 m
スパン 9.00 m
形状 Box + pan
製造者 SPXS
バスタイプ Starlink
フェーズステータス In Orbit
所有者/国 SPXS/US

Most Searched